FW0069 Weather Reports


Display with metric or nautical units.
time (UTC)temp
F
wind
direction
speed
MPH
gust
MPH
rain 1hr
in
rain 24hr
in
rain mn
in
humidity
%
barometer
mb
20260902211057 94 360 9.0 21.0 0.00 0.00 0.00 4 1012.6
20260902210557 94 360 18.0 21.0 0.00 0.00 0.00 4 1012.7
20260902210057 94 360 4.0 21.0 0.00 0.00 0.00 4 1012.6
20260902205557 94 360 7.0 21.0 0.00 0.00 0.00 4 1013.0
20260902205057 93 360 8.0 20.0 0.00 0.00 0.00 4 1013.1
20260902204557 93 360 6.0 21.0 0.00 0.00 0.00 4 1013.1
20260902203557 93 360 4.0 20.0 0.00 0.00 0.00 4 1013.1
20260902203057 93 360 5.0 21.0 0.00 0.00 0.00 4 1013.1
20260902202557 93 360 6.0 21.0 0.00 0.00 0.00 4 1013.2
20260902201057 93 360 17.0 26.0 0.00 0.00 0.00 5 1013.2
20260902200557 92 360 9.0 21.0 0.00 0.00 0.00 5 1013.1
20260902195557 92 360 8.0 21.0 0.00 0.00 0.00 4 1013.6
20260902194557 92 360 6.0 16.0 0.00 0.00 0.00 5 1013.6
20260902194057 92 360 6.0 17.0 0.00 0.00 0.00 4 1013.5
20260902193557 93 360 3.0 17.0 0.00 0.00 0.00 5 1013.7
20260902193057 93 360 7.0 14.0 0.00 0.00 0.00 4 1013.8
20260902192557 92 360 4.0 16.0 0.00 0.00 0.00 5 1014.0
20260902192056 92 360 7.0 18.0 0.00 0.00 0.00 5 1013.9
20260902191557 92 360 9.0 18.0 0.00 0.00 0.00 4 1014.0
20260902191057 91 360 8.0 20.0 0.00 0.00 0.00 5 1013.9
20260902190557 91 360 9.0 20.0 0.00 0.00 0.00 4 1014.1
20260902190057 92 360 5.0 17.0 0.00 0.00 0.00 4 1014.2
20260902185557 91 360 6.0 18.0 0.00 0.00 0.00 5 1014.4
20260902185056 91 360 7.0 19.0 0.00 0.00 0.00 5 1014.4
20260902184557 90 360 6.0 19.0 0.00 0.00 0.00 4 1014.3
20260902184057 90 360 13.0 19.0 0.00 0.00 0.00 4 1014.4
20260902183557 90 360 11.0 19.0 0.00 0.00 0.00 5 1014.5
20260902183057 90 360 10.0 19.0 0.00 0.00 0.00 4 1014.4
20260902182557 90 360 4.0 20.0 0.00 0.00 0.00 5 1014.6
20260902182057 90 360 5.0 20.0 0.00 0.00 0.00 5 1014.6
20260902181556 89 360 14.0 20.0 0.00 0.00 0.00 5 1014.4
20260902181056 89 360 14.0 17.0 0.00 0.00 0.00 5 1014.3
20260902180556 89 360 16.0 18.0 0.00 0.00 0.00 5 1014.5
20260902180057 88 360 10.0 18.0 0.00 0.00 0.00 5 1014.4
20260902175556 88 360 8.0 19.0 0.00 0.00 0.00 5 1014.3
20260902175057 88 360 7.0 19.0 0.00 0.00 0.00 5 1014.2
20260902174556 88 273 13.0 19.0 0.00 0.00 0.00 5 1014.3
20260902174057 88 267 4.0 20.0 0.00 0.00 0.00 6 1014.3
20260902173556 87 257 9.0 20.0 0.00 0.00 0.00 6 1014.4
20260902173057 87 360 11.0 18.0 0.00 0.00 0.00 6 1014.3
20260902172557 87 360 4.0 18.0 0.00 0.00 0.00 6 1014.3
20260902172057 87 360 8.0 14.0 0.00 0.00 0.00 6 1014.3
20260902171556 87 196 9.0 16.0 0.00 0.00 0.00 6 1014.3
20260902171056 87 165 9.0 16.0 0.00 0.00 0.00 6 1014.3
20260902170556 86 180 4.0 13.0 0.00 0.00 0.00 7 1014.0
20260902170056 86 175 6.0 13.0 0.00 0.00 0.00 7 1014.1
20260902165056 86 126 8.0 12.0 0.00 0.00 0.00 7 1014.4
20260902164556 86 117 8.0 13.0 0.00 0.00 0.00 8 1014.4
20260902164057 85 360 5.0 16.0 0.00 0.00 0.00 8 1014.4
20260902163557 85 360 2.0 16.0 0.00 0.00 0.00 8 1014.3
20260902163056 84 360 12.0 14.0 0.00 0.00 0.00 9 1014.2
20260902162556 84 360 5.0 12.0 0.00 0.00 0.00 10 1014.3
20260902162057 83 360 10.0 12.0 0.00 0.00 0.00 8 1013.9
20260902161557 82 360 1.0 14.0 0.00 0.00 0.00 10 1014.1
20260902161056 82 360 5.0 15.0 0.00 0.00 0.00 10 1014.2
20260902160557 82 360 5.0 15.0 0.00 0.00 0.00 10 1014.1
20260902155557 81 360 9.0 9.0 0.00 0.00 0.00 12 1014.2
20260902155056 81 360 2.0 11.0 0.00 0.00 0.00 11 1014.3
20260902154556 81 360 3.0 11.0 0.00 0.00 0.00 10 1014.2
20260902154057 81 360 7.0 13.0 0.00 0.00 0.00 11 1014.2
20260902153056 80 360 11.0 14.0 0.00 0.00 0.00 10 1014.0
20260902152556 80 360 1.0 17.0 0.00 0.00 0.00 11 1014.0
20260902152056 79 360 9.0 17.0 0.00 0.00 0.00 11 1013.7
20260902151056 78 360 2.0 14.0 0.00 0.00 0.00 11 1013.5
20260902150556 77 360 6.0 15.0 0.00 0.00 0.00 12 1013.6
20260902150057 78 360 5.0 15.0 0.00 0.00 0.00 12 1013.6
20260902145557 78 360 10.0 15.0 0.00 0.00 0.00 12 1013.9
20260902145057 78 126 4.0 15.0 0.00 0.00 0.00 12 1013.8
20260902144556 76 96 3.0 14.0 0.00 0.00 0.00 12 1013.7
20260902144057 76 77 9.0 16.0 0.00 0.00 0.00 13 1013.7
20260902143557 76 99 5.0 16.0 0.00 0.00 0.00 13 1013.6
20260902143056 77 67 7.0 13.0 0.00 0.00 0.00 13 1013.6
20260902142556 77 102 7.0 13.0 0.00 0.00 0.00 13 1013.6
20260902142056 77 63 5.0 13.0 0.00 0.00 0.00 12 1013.6
20260902141056 76 99 10.0 17.0 0.00 0.00 0.00 12 1013.5
20260902135557 75 123 9.0 15.0 0.00 0.00 0.00 13 1013.4
20260902135056 75 103 9.0 13.0 0.00 0.00 0.00 13 1013.3
20260902134056 74 72 7.0 16.0 0.00 0.00 0.00 13 1013.5
20260902133556 74 90 7.0 15.0 0.00 0.00 0.00 13 1013.6
20260902133057 73 96 9.0 15.0 0.00 0.00 0.00 14 1013.3
20260902132556 73 67 10.0 16.0 0.00 0.00 0.00 14 1013.2
20260902132057 73 60 14.0 16.0 0.00 0.00 0.00 14 1013.1
20260902131556 73 80 14.0 15.0 0.00 0.00 0.00 15 1013.1
20260902131056 73 109 10.0 14.0 0.00 0.00 0.00 15 1013.3
20260902130556 73 69 7.0 14.0 0.00 0.00 0.00 15 1013.2
20260902130056 73 68 11.0 15.0 0.00 0.00 0.00 15 1013.2
20260902125556 73 84 8.0 15.0 0.00 0.00 0.00 14 1013.1
20260902125056 74 101 5.0 10.0 0.00 0.00 0.00 14 1013.3
20260902124056 76 78 5.0 14.0 0.00 0.00 0.00 13 1013.4
20260902123557 76 95 7.0 14.0 0.00 0.00 0.00 12 1013.1
20260902123057 75 134 6.0 14.0 0.00 0.00 0.00 12 1013.0
20260902122056 75 115 5.0 13.0 0.00 0.00 0.00 12 1012.9
20260902121556 75 117 4.0 13.0 0.00 0.00 0.00 13 1012.8
20260902121057 75 118 9.0 12.0 0.00 0.00 0.00 13 1012.8
20260902120556 75 130 4.0 10.0 0.00 0.00 0.00 13 1013.0
20260902120056 75 141 4.0 10.0 0.00 0.00 0.00 13 1013.1
20260902115557 75 122 10.0 10.0 0.00 0.00 0.00 13 1013.2
20260902115056 74 153 2.0 9.0 0.00 0.00 0.00 13 1013.4
20260902114557 74 105 1.0 10.0 0.00 0.00 0.00 14 1013.4
20260902114057 74 59 5.0 10.0 0.00 0.00 0.00 14 1013.4
20260902113056 75 34 7.0 9.0 0.00 0.00 0.00 13 1013.2
20260902112056 75 92 8.0 8.0 0.00 0.00 0.00 13 1012.9
20260902111056 75 115 3.0 8.0 0.00 0.00 0.00 13 1013.0
20260902110056 76 111 3.0 9.0 0.00 0.00 0.00 13 1013.0
20260902105556 76 136 3.0 9.0 0.00 0.00 0.00 13 1013.0
20260902105056 76 137 1.0 10.0 0.00 0.00 0.00 13 1013.1
20260902104556 76 142 4.0 10.0 0.00 0.00 0.00 13 1013.1
20260902103556 76 136 2.0 8.0 0.00 0.00 0.00 13 1013.2
20260902103056 76 139 3.0 8.0 0.00 0.00 0.00 13 1013.2
20260902102556 76 125 5.0 8.0 0.00 0.00 0.00 13 1013.3
20260902101556 76 128 5.0 7.0 0.00 0.00 0.00 13 1013.4
20260902101056 76 120 4.0 9.0 0.00 0.00 0.00 13 1013.4
20260902100556 76 111 3.0 9.0 0.00 0.00 0.00 13 1013.4
20260902100056 76 119 4.0 7.0 0.00 0.00 0.00 13 1013.5
20260902095556 77 131 4.0 7.0 0.00 0.00 0.00 13 1013.6
20260902094556 77 101 3.0 5.0 0.00 0.00 0.00 13 1013.6
20260902094056 77 117 2.0 5.0 0.00 0.00 0.00 13 1013.7
20260902093556 77 119 2.0 8.0 0.00 0.00 0.00 13 1013.7
20260902093056 77 137 2.0 8.0 0.00 0.00 0.00 13 1013.7
20260902092556 77 140 3.0 4.0 0.00 0.00 0.00 13 1013.6
20260902092056 78 156 1.0 3.0 0.00 0.00 0.00 13 1013.9
20260902090056 79 157 0.0 3.0 0.00 0.00 0.00 13 1013.9
20260902085556 79 165 0.0 3.0 0.00 0.00 0.00 13 1013.9
20260902084556 80 166 0.0 4.0 0.00 0.00 0.00 12 1013.8
20260902084056 80 159 0.0 5.0 0.00 0.00 0.00 12 1013.8
20260902083556 80 159 0.0 8.0 0.00 0.00 0.00 12 1013.8
20260902083056 80 178 2.0 9.0 0.00 0.00 0.00 12 1013.8
20260902082056 80 190 6.0 13.0 0.00 0.00 0.00 12 1013.8
20260902081556 80 179 4.0 13.0 0.00 0.00 0.00 12 1013.9
20260902081056 80 180 5.0 12.0 0.00 0.00 0.00 12 1013.9
20260902080556 80 177 6.0 10.0 0.00 0.00 0.00 12 1013.8
20260902080056 80 169 9.0 11.0 0.00 0.00 0.00 12 1013.7
20260902075556 80 185 10.0 11.0 0.00 0.00 0.00 12 1013.5
20260902075056 80 190 7.0 8.0 0.00 0.00 0.00 12 1013.5
20260902074056 81 171 2.0 5.0 0.00 0.00 0.00 11 1013.7
20260902073556 81 149 3.0 8.0 0.00 0.00 0.00 11 1013.6
20260902073056 81 188 1.0 10.0 0.00 0.00 0.00 11 1013.7
20260902071556 81 180 5.0 10.0 0.00 0.00 0.00 10 1013.4
20260902071056 82 178 4.0 10.0 0.00 0.00 0.00 10 1013.4
20260902070556 82 191 3.0 12.0 0.00 0.00 0.00 10 1013.4
20260902070055 82 191 4.0 12.0 0.00 0.00 0.00 10 1013.2
20260902065056 82 180 5.0 10.0 0.00 0.00 0.00 10 1012.9
20260902064556 82 200 7.0 10.0 0.00 0.00 0.00 10 1012.9
20260902064056 82 202 8.0 10.0 0.00 0.00 0.00 10 1012.9
20260902063556 82 186 7.0 10.0 0.00 0.00 0.00 10 1012.9
20260902063056 82 180 10.0 10.0 0.00 0.00 0.00 10 1012.8
20260902062556 82 174 10.0 10.0 0.00 0.00 0.00 11 1012.7
20260902062056 82 194 7.0 10.0 0.00 0.00 0.00 11 1012.7
20260902061556 81 175 2.0 7.0 0.00 0.00 0.00 11 1012.7
20260902061056 81 188 4.0 6.0 0.00 0.00 0.00 12 1012.8
20260902060556 81 360 4.0 6.0 0.00 0.00 0.00 12 1012.7
20260902060055 81 179 4.0 6.0 0.00 0.00 0.00 12 1012.7
20260902055556 82 171 3.0 5.0 0.00 0.00 0.00 12 1012.6
20260902055056 82 172 3.0 6.0 0.00 0.00 0.00 12 1012.5
20260902054556 82 176 3.0 6.0 0.00 0.00 0.00 12 1012.5
20260902054056 82 182 3.0 6.0 0.00 0.00 0.00 12 1012.6
20260902053556 82 184 2.0 6.0 0.00 0.00 0.00 12 1012.7
20260902053056 83 189 1.0 3.0 0.00 0.00 0.00 13 1012.9
20260902052556 83 189 0.0 2.0 0.00 0.00 0.00 13 1012.8
20260902052056 83 189 0.0 3.0 0.00 0.00 0.00 13 1012.7
20260902051555 83 188 2.0 3.0 0.00 0.00 0.00 13 1012.7
20260902050555 84 188 1.0 4.0 0.00 0.00 0.00 12 1012.6
20260902050056 84 188 0.0 5.0 0.00 0.00 0.00 12 1012.6
20260902045555 84 188 2.0 5.0 0.00 0.00 0.00 12 1012.4
20260902045056 84 181 3.0 4.0 0.00 0.00 0.00 12 1012.3
20260902044556 85 181 1.0 6.0 0.00 0.00 0.00 12 1012.4
20260902044055 85 194 3.0 6.0 0.00 0.00 0.00 12 1012.4
20260902043555 85 360 3.0 5.0 0.00 0.00 0.00 12 1012.3
20260902043055 85 360 3.0 6.0 0.00 0.00 0.00 12 1012.2
20260902042555 85 360 3.0 6.0 0.00 0.00 0.00 12 1012.1
20260902042055 86 360 2.0 6.0 0.00 0.00 0.00 12 1012.2
20260902041555 86 360 0.0 4.0 0.00 0.00 0.00 12 1012.3
20260902041056 86 360 1.0 7.0 0.00 0.00 0.00 12 1012.2
20260902040555 86 360 2.0 7.0 0.00 0.00 0.00 12 1012.0
20260902040055 86 187 4.0 10.0 0.00 0.00 0.00 12 1011.9
20260902035555 87 200 6.0 11.0 0.00 0.00 0.00 12 1011.8
20260902035055 87 180 4.0 11.0 0.00 0.00 0.00 12 1011.8
20260902034555 87 191 2.0 5.0 0.00 0.00 0.00 12 1011.6
20260902034055 87 202 2.0 6.0 0.00 0.00 0.00 12 1011.6
20260902033556 87 207 2.0 7.0 0.00 0.00 0.00 12 1011.5
20260902032556 87 180 3.0 6.0 0.00 0.00 0.00 12 1011.2
20260902032056 88 180 4.0 11.0 0.00 0.00 0.00 12 1011.2
20260902031555 88 192 4.0 11.0 0.00 0.00 0.00 12 1011.2
20260902031056 88 360 5.0 9.0 0.00 0.00 0.00 13 1011.3
20260902030555 88 360 3.0 11.0 0.00 0.00 0.00 12 1011.2
20260902030055 88 360 5.0 11.0 0.00 0.00 0.00 12 1011.0
20260902025555 88 360 4.0 9.0 0.00 0.00 0.00 12 1011.0
20260902025055 88 360 3.0 10.0 0.00 0.00 0.00 12 1010.9
20260902024555 88 360 6.0 10.0 0.00 0.00 0.00 12 1010.9
20260902024056 88 360 7.0 12.0 0.00 0.00 0.00 12 1011.0
20260902023555 89 360 4.0 12.0 0.00 0.00 0.00 12 1011.0
20260902023056 89 360 5.0 10.0 0.00 0.00 0.00 12 1011.0
20260902022555 89 360 3.0 10.0 0.00 0.00 0.00 12 1011.0
20260902022055 89 360 2.0 8.0 0.00 0.00 0.00 11 1011.1
20260902021555 89 360 4.0 8.0 0.00 0.00 0.00 11 1011.1
20260902021055 90 360 2.0 12.0 0.00 0.00 0.00 11 1011.0
20260902020556 90 360 6.0 12.0 0.00 0.00 0.00 11 1011.0
20260902015555 90 360 4.0 10.0 0.00 0.00 0.00 11 1010.9
20260902015055 91 360 4.0 7.0 0.00 0.00 0.00 11 1010.9
20260902014555 91 201 4.0 7.0 0.00 0.00 0.00 11 1011.1
20260902014056 91 194 4.0 10.0 0.00 0.00 0.00 11 1011.1
20260902013555 91 203 4.0 11.0 0.00 0.00 0.00 11 1011.1
20260902013055 91 184 7.0 11.0 0.00 0.00 0.00 11 1011.1
20260902012555 91 195 4.0 9.0 0.00 0.00 0.00 11 1011.3
20260902012055 91 196 7.0 9.0 0.00 0.00 0.00 11 1011.2
20260902011055 92 215 3.0 16.0 0.00 0.00 0.00 10 1011.2
20260902010556 92 174 3.0 16.0 0.00 0.00 0.00 10 1011.3
20260902010055 92 198 7.0 16.0 0.00 0.00 0.00 10 1011.3
20260902005055 92 192 4.0 18.0 0.00 0.00 0.00 10 1011.5
20260902004555 93 188 18.0 18.0 0.00 0.00 0.00 9 1011.8
20260902004055 93 199 7.0 14.0 0.00 0.00 0.00 9 1011.8
20260902003556 93 161 13.0 20.0 0.00 0.00 0.00 9 1011.7
20260902002556 94 178 20.0 20.0 0.00 0.00 0.00 9 1011.6
20260902002055 93 128 5.0 11.0 0.00 0.00 0.00 9 1011.6
20260902001555 94 183 3.0 15.0 0.00 0.00 0.00 9 1011.7
20260902001055 93 158 4.0 20.0 0.00 0.00 0.00 9 1011.6
20260902000555 94 174 6.0 20.0 0.00 0.00 0.00 8 1011.6
20260902000055 94 178 6.0 16.0 0.00 0.00 0.00 9 1011.7
20260901235055 94 187 7.0 18.0 0.00 0.00 0.00 8 1011.9
20260901234555 94 179 11.0 18.0 0.00 0.00 0.00 8 1011.9
20260901234055 95 232 7.0 17.0 0.00 0.00 0.00 8 1011.8
20260901233555 95 184 9.0 15.0 0.00 0.00 0.00 8 1011.9
20260901233055 94 215 7.0 20.0 0.00 0.00 0.00 8 1011.8
20260901232555 94 198 8.0 22.0 0.00 0.00 0.00 8 1012.0
20260901232055 94 200 7.0 22.0 0.00 0.00 0.00 8 1012.0
20260901231555 94 173 8.0 20.0 0.00 0.00 0.00 7 1011.9
20260901231055 95 205 13.0 24.0 0.00 0.00 0.00 8 1011.9
20260901230555 95 199 9.0 24.0 0.00 0.00 0.00 7 1011.9
20260901230055 96 178 7.0 15.0 0.00 0.00 0.00 8 1012.1
20260901225555 95 205 5.0 21.0 0.00 0.00 0.00 8 1012.1
20260901225055 95 196 7.0 21.0 0.00 0.00 0.00 8 1012.0
20260901224555 95 183 10.0 17.0 0.00 0.00 0.00 8 1012.1
20260901224055 96 218 14.0 17.0 0.00 0.00 0.00 8 1012.3
20260901223555 96 211 7.0 17.0 0.00 0.00 0.00 8 1012.2
20260901223055 96 196 9.0 20.0 0.00 0.00 0.00 8 1012.3
20260901222055 95 111 12.0 18.0 0.00 0.00 0.00 9 1012.3
20260901220555 96 192 6.0 17.0 0.00 0.00 0.00 9 1012.4
20260901220055 96 203 6.0 16.0 0.00 0.00 0.00 9 1012.6
20260901215555 95 196 7.0 19.0 0.00 0.00 0.00 9 1012.5
20260901214555 95 217 9.0 20.0 0.00 0.00 0.00 9 1012.6
20260901214055 96 196 6.0 15.0 0.00 0.00 0.00 9 1012.7
20260901213555 96 180 9.0 14.0 0.00 0.00 0.00 9 1012.7
20260901212555 96 175 4.0 12.0 0.00 0.00 0.00 9 1012.9
20260901212055 95 160 7.0 19.0 0.00 0.00 0.00 9 1013.0
20260901211555 96 169 5.0 19.0 0.00 0.00 0.00 9 1013.0